Wetterstats.de || Aktuelle Messwerte || Aktuelle Wetterkarten NEU! || Radar / Satellit NEU! || Wetterarchiv || Langzeitwerte NEU! || Klim. Kenntage || Met. Ereignisse || Agrarwerte || Echtzeitwerte

Monatsübersicht für Januar 2021 Diagramm
 
Wetter Information zur Wetteranzeige
Zeitraffer
Tageslänge (hh:mm)
Höchsttemperatur in °C
Uhrzeit
Tiefsttemperatur in °C
Uhrzeit
Luftfeuchte (max., in %)
Uhrzeit
Luftfeuchte (min., in %)
Uhrzeit
Luftdruck (max., in hPa)
Uhrzeit
Luftdruck (min., in hPa)
Uhrzeit
Luftdruck (Ø, in hPa)
Regenrate (max, mm/h)
Uhrzeit
Niederschlag in mm
Verdunstung in mm
Solar in W/m² (Ø)
Solar in W/m² (max.)
UV-Index (max.)
Sonnenscheindauer (hh:mm)
Windrichtung (Ø)
Windstärke (Ø in km/h)
Windstärke (Ø in bft)
Windböe (max., in km/h)
Uhrzeit
Windböe (max., in bft)
Uhrzeit
Taupunkt (max., in °C)
Uhrzeit
Taupunkt (min., in °C)
Uhrzeit
Windchill (min., in °C)
Uhrzeit
Gewitterindex (max.)
Uhrzeit
Waldbrandindex (max.)
Uhrzeit
Graslandfeuerindex (max.)
Uhrzeit
Staubsturm-Index (max.)
Uhrzeit
01
Zeitraffer
07:51
2.7
15:00 Uhr
0.4
08:05 Uhr

95
09:40 Uhr
85
01:30 Uhr
1012.0
23:45 Uhr

1005.6
05:10 Uhr
1008.0
0,000
00:00 Uhr
0,800
0.127
43
107
12:55 Uhr
0.0
00:00 Uhr

00:00:00
2,7
1
11,3
21:25 Uhr

2
1.9
14:15 Uhr
-0.7
06:20 Uhr
0.4
08:05 Uhr
0
00:00 Uhr
0.0
00:00 Uhr
0.0
00:00 Uhr
0.0
00:00 Uhr
02
Zeitraffer
07:52
3.0
13:00 Uhr
-1.3
05:35 Uhr

95
05:40 Uhr
81
02:20 Uhr
1017.4
22:15 Uhr

1012.0
00:00 Uhr
1014.9
0,000
00:00 Uhr
0,000
0.178
79
224
12:50 Uhr
0.0
00:00 Uhr

01:19:00
3,4
1
17,7
23:55 Uhr

3
1.9
14:25 Uhr
-2.1
05:25 Uhr
-3.9
23:45 Uhr
0
00:00 Uhr
0.0
00:00 Uhr
0.0
00:00 Uhr
0.0
00:00 Uhr
03
Zeitraffer
07:53
1.0
06:00 Uhr
-1.1
00:00 Uhr

96
12:40 Uhr
87
05:15 Uhr
1017.0
00:20 Uhr

1014.2
12:50 Uhr
1015.5
0,000
00:00 Uhr
2,400
0.127
25
42
13:20 Uhr
0.0
00:00 Uhr

00:00:00
9,9
2
30,6
07:50 Uhr

5
0.2
15:05 Uhr
-1.8
00:00 Uhr
-7.3
10:55 Uhr
0
00:00 Uhr
0.0
00:00 Uhr
0.0
00:00 Uhr
0.0
00:00 Uhr
04
Zeitraffer
07:54
0.9
04:00 Uhr
0.6
06:55 Uhr

96
00:00 Uhr
95
03:50 Uhr
1018.1
23:25 Uhr

1016.5
01:40 Uhr
1017.3
0,000
00:00 Uhr
0,200
0.000
15
25
15:00 Uhr
0.0
00:00 Uhr

00:00:00
7,1
2
20,9
17:20 Uhr

4
0.3
02:00 Uhr
-0.1
06:55 Uhr
-4.1
00:55 Uhr
0
00:00 Uhr
0.0
00:00 Uhr
0.0
00:00 Uhr
0.0
00:00 Uhr
05
Zeitraffer
07:56
3.1
23:00 Uhr
0.7
00:00 Uhr

96
00:00 Uhr
92
19:55 Uhr
1017.8
00:00 Uhr

1013.7
23:50 Uhr
1016.6
0,000
00:00 Uhr
0,600
0.000
15
31
12:25 Uhr
0.0
00:00 Uhr

00:00:00
7,1
2
24,1
06:10 Uhr

4
2.4
23:40 Uhr
0.1
00:05 Uhr
-5.5
07:15 Uhr
0
00:00 Uhr
0.0
00:00 Uhr
0.0
00:00 Uhr
0.0
00:00 Uhr
06
Zeitraffer
07:58
3.7
02:00 Uhr
1.2
23:15 Uhr

95
11:15 Uhr
90
14:25 Uhr
1013.7
00:00 Uhr

1009.7
13:40 Uhr
1010.9
0,000
00:00 Uhr
1,800
0.152
35
77
11:20 Uhr
0.0
00:00 Uhr

00:06:00
6,5
1
24,1
08:25 Uhr

4
2.8
01:30 Uhr
0.3
20:50 Uhr
-5.3
22:50 Uhr
0
00:00 Uhr
0.0
00:00 Uhr
0.0
00:00 Uhr
0.0
00:00 Uhr
07
Zeitraffer
08:00
1.8
17:00 Uhr
0.8
03:45 Uhr

94
00:00 Uhr
87
20:35 Uhr
1010.8
21:45 Uhr

1009.5
05:15 Uhr
1010.2
0,000
00:00 Uhr
0,000
0.127
23
37
12:40 Uhr
0.0
00:00 Uhr

00:00:00
7,0
1
22,5
14:10 Uhr

4
0.3
00:00 Uhr
-0.5
06:10 Uhr
-5.7
06:20 Uhr
0
00:00 Uhr
0.0
00:00 Uhr
0.0
00:00 Uhr
0.0
00:00 Uhr
08
Zeitraffer
08:01
1.7
14:00 Uhr
0.2
06:50 Uhr

94
07:25 Uhr
84
20:40 Uhr
1016.1
23:00 Uhr

1010.1
05:35 Uhr
1012.3
0,000
00:00 Uhr
0,000
0.102
33
65
11:25 Uhr
0.0
00:00 Uhr

00:00:00
4,0
1
17,7
17:00 Uhr

3
0.7
13:25 Uhr
-1.2
20:10 Uhr
-2.2
17:10 Uhr
0
00:00 Uhr
0.0
00:00 Uhr
0.0
00:00 Uhr
0.0
00:00 Uhr
09
Zeitraffer
08:04
2.7
19:00 Uhr
0.6
00:00 Uhr

95
04:40 Uhr
91
09:30 Uhr
1023.7
22:45 Uhr

1016.0
00:05 Uhr
1019.9
0,000
00:00 Uhr
0,000
0.077
27
46
09:25 Uhr
0.0
00:00 Uhr

00:00:00
3,8
1
17,7
17:40 Uhr

3
1.7
15:50 Uhr
-0.2
00:00 Uhr
-1.2
22:40 Uhr
0
00:00 Uhr
0.0
00:00 Uhr
0.0
00:00 Uhr
0.0
00:00 Uhr
10
Zeitraffer
08:05
2.4
00:00 Uhr
-1.3
20:40 Uhr

95
01:15 Uhr
81
13:30 Uhr
1025.4
10:25 Uhr

1021.8
23:50 Uhr
1023.9
0,000
00:00 Uhr
0,000
0.279
76
337
12:40 Uhr
0.5
12:35 Uhr

00:59:00
5,3
1
19,3
10:10 Uhr

3
1.6
00:00 Uhr
-2.3
20:40 Uhr
-5.3
22:25 Uhr
0
00:00 Uhr
0.0
00:00 Uhr
0.0
00:00 Uhr
0.0
00:00 Uhr
11
Zeitraffer
08:08
1.6
21:00 Uhr
-1.0
00:00 Uhr

93
00:00 Uhr
78
20:25 Uhr
1021.6
00:05 Uhr

1010.2
23:55 Uhr
1017.4
0,000
00:00 Uhr
0,200
0.356
43
98
13:25 Uhr
0.0
00:00 Uhr

00:00:00
8,9
2
30,6
19:55 Uhr

5
-0.8
13:40 Uhr
-2.2
01:15 Uhr
-7.3
14:25 Uhr
0
00:00 Uhr
0.0
00:00 Uhr
0.0
00:00 Uhr
0.0
00:00 Uhr
12
Zeitraffer
08:10
3.3
16:00 Uhr
0.5
04:00 Uhr

96
15:15 Uhr
80
00:00 Uhr
1010.2
00:00 Uhr

1000.3
13:40 Uhr
1004.1
1,000
11:50 Uhr
3,200
0.178
24
69
12:25 Uhr
0.0
00:00 Uhr

00:00:00
10,1
2
40,2
00:30 Uhr

5
2.6
15:20 Uhr
-2.1
00:00 Uhr
-9.5
02:00 Uhr
0
00:00 Uhr
0.0
00:00 Uhr
0.0
00:00 Uhr
0.0
00:00 Uhr
13
Zeitraffer
08:12
3.8
15:00 Uhr
0.2
23:45 Uhr

94
18:35 Uhr
81
14:45 Uhr
1008.8
09:55 Uhr

1001.7
17:50 Uhr
1006.1
0,000
00:00 Uhr
0,800
0.356
39
127
13:25 Uhr
0.0
00:00 Uhr

00:01:00
12,1
2
40,2
18:10 Uhr

5
1.2
14:20 Uhr
-1.5
23:55 Uhr
-8.7
23:35 Uhr
0
00:00 Uhr
0.0
00:00 Uhr
0.0
00:00 Uhr
0.0
00:00 Uhr
14
Zeitraffer
08:14
2.3
13:00 Uhr
-0.1
01:50 Uhr

95
03:20 Uhr
85
00:30 Uhr
1020.6
23:40 Uhr

1002.2
01:15 Uhr
1013.9
0,000
00:00 Uhr
0,800
0.229
58
281
12:50 Uhr
0.5
12:20 Uhr

00:30:00
8,4
2
32,2
00:00 Uhr

5
0.7
11:35 Uhr
-1.9
00:30 Uhr
-9.2
00:05 Uhr
0
00:00 Uhr
0.0
00:00 Uhr
0.0
00:00 Uhr
0.0
00:00 Uhr
15
Zeitraffer
08:17
1.9
00:00 Uhr
-2.4
23:05 Uhr

90
00:00 Uhr
69
22:40 Uhr
1026.6
22:35 Uhr

1020.3
00:55 Uhr
1023.3
0,000
00:00 Uhr
0,000
0.330
27
112
12:25 Uhr
0.0
00:00 Uhr

00:00:00
7,4
2
24,1
12:45 Uhr

4
0.4
00:00 Uhr
-7.1
22:40 Uhr
-9.1
21:10 Uhr
0
00:00 Uhr
0.0
00:00 Uhr
0.0
00:00 Uhr
0.0
00:00 Uhr


 
Wetter Information zur Wetteranzeige
Zeitraffer
Tageslänge (hh:mm)
Höchsttemperatur in °C
Uhrzeit
Tiefsttemperatur in °C
Uhrzeit
Luftfeuchte (max., in %)
Uhrzeit
Luftfeuchte (min., in %)
Uhrzeit
Luftdruck (max., in hPa)
Uhrzeit
Luftdruck (min., in hPa)
Uhrzeit
Luftdruck (Ø, in hPa)
Regenrate (max, mm/h)
Uhrzeit
Niederschlag in mm
Verdunstung in mm
Solar in W/m² (Ø)
Solar in W/m² (max.)
UV-Index (max.)
Sonnenscheindauer (hh:mm)
Windrichtung (Ø)
Windstärke (Ø in km/h)
Windstärke (Ø in bft)
Windböe (max., in km/h)
Uhrzeit
Windböe (max., in bft)
Uhrzeit
Taupunkt (max., in °C)
Uhrzeit
Taupunkt (min., in °C)
Uhrzeit
Windchill (min., in °C)
Uhrzeit
Gewitterindex (max.)
Uhrzeit
Waldbrandindex (max.)
Uhrzeit
Graslandfeuerindex (max.)
Uhrzeit
Staubsturm-Index (max.)
Uhrzeit
16
Zeitraffer
08:19
-0.5
14:00 Uhr
-2.4
04:40 Uhr

86
06:50 Uhr
69
01:30 Uhr
1026.5
00:00 Uhr

1019.9
22:00 Uhr
1023.2
0,000
00:00 Uhr
0,000
0.610
70
282
14:00 Uhr
0.0
00:00 Uhr

00:32:00
7,7
2
27,4
13:10 Uhr

4
-3.8
10:00 Uhr
-7.0
01:30 Uhr
-9.9
13:20 Uhr
0
00:00 Uhr
0.0
00:00 Uhr
0.0
00:00 Uhr
0.0
00:00 Uhr
17
Zeitraffer
08:22
-0.2
13:00 Uhr
-4.6
23:25 Uhr

90
23:20 Uhr
76
00:10 Uhr
1022.7
19:25 Uhr

1018.2
04:00 Uhr
1020.5
0,000
00:00 Uhr
0,000
0.229
60
129
12:20 Uhr
0.0
00:00 Uhr

00:00:00
2,1
1
12,9
01:15 Uhr

2
-2.6
12:20 Uhr
-6.0
23:10 Uhr
-4.6
23:25 Uhr
0
00:00 Uhr
0.0
00:00 Uhr
0.0
00:00 Uhr
0.0
00:00 Uhr
18
Zeitraffer
08:25
2.4
23:00 Uhr
-5.6
03:25 Uhr

95
14:40 Uhr
90
00:00 Uhr
1022.3
00:00 Uhr

1016.0
23:40 Uhr
1019.4
1,000
16:45 Uhr
3,600
0.127
41
80
11:45 Uhr
0.0
00:00 Uhr

00:00:00
4,6
1
25,7
20:05 Uhr

4
1.9
23:20 Uhr
-6.8
03:25 Uhr
-5.6
03:25 Uhr
0
00:00 Uhr
0.0
00:00 Uhr
0.0
00:00 Uhr
0.0
00:00 Uhr
19
Zeitraffer
08:27
4.4
23:00 Uhr
0.6
13:30 Uhr

97
21:35 Uhr
87
11:50 Uhr
1016.1
00:00 Uhr

1004.5
17:00 Uhr
1009.3
2,200
12:55 Uhr
4,800
0.102
30
81
11:25 Uhr
0.0
00:00 Uhr

00:00:00
8,3
2
32,2
12:25 Uhr

5
4.3
23:30 Uhr
-0.3
13:35 Uhr
-6.3
12:55 Uhr
0
00:00 Uhr
0.0
00:00 Uhr
0.0
00:00 Uhr
0.0
00:00 Uhr
20
Zeitraffer
08:30
8.8
14:00 Uhr
3.5
08:35 Uhr

95
00:00 Uhr
67
14:10 Uhr
1005.3
03:25 Uhr

1000.8
21:50 Uhr
1003.3
0,000
00:00 Uhr
0,200
0.660
82
208
11:20 Uhr
0.5
10:55 Uhr

00:54:00
9,4
2
37,0
12:15 Uhr

5
4.5
00:10 Uhr
1.7
08:10 Uhr
-2.3
06:10 Uhr
0
00:00 Uhr
0.0
00:00 Uhr
0.0
00:00 Uhr
0.0
00:00 Uhr
21
Zeitraffer
08:33
12.9
13:00 Uhr
5.2
01:50 Uhr

86
23:45 Uhr
50
12:25 Uhr
1000.6
00:00 Uhr

995.2
23:55 Uhr
997.2
0,000
00:00 Uhr
0,200
1.372
102
294
11:25 Uhr
0.7
11:25 Uhr

02:45:00
10,4
2
46,7
11:20 Uhr

6
5.6
18:00 Uhr
0.3
03:40 Uhr
0.6
08:35 Uhr
0
00:00 Uhr
0.0
00:00 Uhr
0.0
00:00 Uhr
0.0
00:00 Uhr
22
Zeitraffer
08:37
11.4
04:00 Uhr
1.4
22:45 Uhr

89
23:05 Uhr
65
04:40 Uhr
998.3
23:30 Uhr

988.8
07:55 Uhr
993.3
0,000
00:00 Uhr
0,200
0.889
51
158
12:10 Uhr
0.5
12:05 Uhr

00:17:00
9,1
2
51,5
08:20 Uhr

6
6.4
03:05 Uhr
-0.5
22:10 Uhr
1.3
10:50 Uhr
0
00:00 Uhr
0.0
00:00 Uhr
0.0
00:00 Uhr
0.0
00:00 Uhr
23
Zeitraffer
08:39
3.1
16:00 Uhr
-0.1
23:20 Uhr

95
23:05 Uhr
89
00:00 Uhr
998.3
00:30 Uhr

996.2
13:25 Uhr
997.2
2,200
09:35 Uhr
5,400
0.102
30
58
13:00 Uhr
0.0
00:00 Uhr

00:00:00
2,5
1
24,1
12:40 Uhr

4
2.1
15:00 Uhr
-0.8
23:20 Uhr
-4.2
12:35 Uhr
0
00:00 Uhr
0.0
00:00 Uhr
0.0
00:00 Uhr
0.0
00:00 Uhr
24
Zeitraffer
08:42
1.8
17:00 Uhr
-0.2
00:40 Uhr

96
03:35 Uhr
95
00:00 Uhr
999.0
23:10 Uhr

995.6
06:25 Uhr
996.8
0,000
00:00 Uhr
1,600
0.102
37
97
13:05 Uhr
0.0
00:00 Uhr

00:00:00
2,9
1
11,3
01:55 Uhr

2
1.3
16:55 Uhr
-0.9
00:40 Uhr
-0.2
00:40 Uhr
0
00:00 Uhr
0.0
00:00 Uhr
0.0
00:00 Uhr
0.0
00:00 Uhr
25
Zeitraffer
08:46
2.8
15:00 Uhr
0.6
04:20 Uhr

96
00:30 Uhr
82
14:30 Uhr
1008.5
23:35 Uhr

998.9
00:00 Uhr
1003.2
0,000
00:00 Uhr
0,200
0.254
71
198
14:25 Uhr
0.0
00:00 Uhr

00:16:00
5,0
1
19,3
15:10 Uhr

3
0.9
00:35 Uhr
-0.5
20:35 Uhr
-3.2
18:50 Uhr
0
00:00 Uhr
0.0
00:00 Uhr
0.0
00:00 Uhr
0.0
00:00 Uhr
26
Zeitraffer
08:49
3.4
14:00 Uhr
-2.1
07:55 Uhr

93
08:10 Uhr
79
13:50 Uhr
1015.2
23:30 Uhr

1008.4
00:00 Uhr
1011.6
0,000
00:00 Uhr
0,000
0.610
127
392
13:40 Uhr
0.7
12:55 Uhr

03:38:00
5,8
1
29,0
20:45 Uhr

4
0.5
13:45 Uhr
-3.2
07:55 Uhr
-6.0
20:45 Uhr
0
00:00 Uhr
0.0
00:00 Uhr
0.0
00:00 Uhr
0.0
00:00 Uhr
27
Zeitraffer
08:52
4.9
15:00 Uhr
-1.0
05:30 Uhr

95
06:55 Uhr
73
14:40 Uhr
1015.3
01:15 Uhr

1008.9
23:50 Uhr
1013.0
0,000
00:00 Uhr
0,000
0.533
124
302
11:05 Uhr
0.7
11:50 Uhr

04:14:00
5,4
1
20,9
01:35 Uhr

4
1.3
13:05 Uhr
-1.9
05:25 Uhr
-5.1
00:10 Uhr
0
00:00 Uhr
0.0
00:00 Uhr
0.0
00:00 Uhr
0.0
00:00 Uhr
28
Zeitraffer
08:55
3.8
12:00 Uhr
-1.4
23:50 Uhr

95
03:10 Uhr
76
15:10 Uhr
1009.1
00:00 Uhr

1001.6
15:30 Uhr
1004.5
1,400
04:15 Uhr
0,800
0.381
74
161
12:05 Uhr
0.5
11:50 Uhr

00:14:00
5,9
1
25,7
02:45 Uhr

4
3.0
08:35 Uhr
-3.7
22:50 Uhr
-5.3
19:10 Uhr
0
00:00 Uhr
0.0
00:00 Uhr
0.0
00:00 Uhr
0.0
00:00 Uhr
29
Zeitraffer
08:58
1.1
14:00 Uhr
-2.7
07:20 Uhr

94
22:10 Uhr
69
14:20 Uhr
1005.1
00:20 Uhr

995.8
14:05 Uhr
999.4
0,000
00:00 Uhr
0,000
0.356
81
177
12:15 Uhr
0.6
12:10 Uhr

00:00:00
4,9
1
20,9
13:10 Uhr

4
-2.1
19:30 Uhr
-4.0
07:20 Uhr
-4.8
09:55 Uhr
0
00:00 Uhr
0.0
00:00 Uhr
0.0
00:00 Uhr
0.0
00:00 Uhr
30
Zeitraffer
09:02
1.3
14:00 Uhr
-3.8
23:35 Uhr

95
08:40 Uhr
77
15:40 Uhr
1006.4
23:00 Uhr

996.4
01:05 Uhr
1002.3
2,400
12:15 Uhr
1,800
0.229
73
372
13:50 Uhr
0.7
12:10 Uhr

00:24:00
3,4
1
22,5
04:05 Uhr

4
-0.8
12:20 Uhr
-5.5
23:35 Uhr
-7.8
04:05 Uhr
0
00:00 Uhr
0.0
00:00 Uhr
0.0
00:00 Uhr
0.0
00:00 Uhr
31
Zeitraffer
09:05
-0.7
14:00 Uhr
-8.2
07:45 Uhr

93
04:25 Uhr
74
14:05 Uhr
1008.1
11:00 Uhr

1003.6
23:35 Uhr
1006.2
0,000
00:00 Uhr
0,200
0.533
194
346
12:05 Uhr
0.8
11:30 Uhr

05:52:00
2,0
0
14,5
14:00 Uhr

3
-3.3
13:20 Uhr
-9.2
07:45 Uhr
-8.2
07:45 Uhr
0
00:00 Uhr
0.0
00:00 Uhr
0.0
00:00 Uhr
0.0
00:00 Uhr
Stationsstandorte || Wetterblog || Wissenswertes || Downloads || Seitenhistorie || Partner || Impressum / Datenschutz